CCSDS_OMM_VERS = 2.0 CREATION_DATE = ORIGINATOR = OBJECT_NAME = METOP-B OBJECT_ID = 2012-049A CENTER_NAME = EARTH REF_FRAME = TEME TIME_SYSTEM = UTC MEAN_ELEMENT_THEORY = SGP/SGP4 EPOCH = 2026-09-12T06:18:17.277408 MEAN_MOTION = 14.21458567 ECCENTRICITY = .0003457 INCLINATION = 98.6421 RA_OF_ASC_NODE = 304.9895 ARG_OF_PERICENTER = 95.3514 MEAN_ANOMALY = 264.8058 EPHEMERIS_TYPE = 0 CLASSIFICATION_TYPE = U NORAD_CAT_ID = 38771 ELEMENT_SET_NO = 999 REV_AT_EPOCH = 72563 BSTAR = .47748E-4 MEAN_MOTION_DOT = .61000E-6 MEAN_MOTION_DDOT = 0 CCSDS_OMM_VERS = 2.0 CREATION_DATE = ORIGINATOR = OBJECT_NAME = SARAL OBJECT_ID = 2013-009A CENTER_NAME = EARTH REF_FRAME = TEME TIME_SYSTEM = UTC MEAN_ELEMENT_THEORY = SGP/SGP4 EPOCH = 2026-09-12T06:10:23.315520 MEAN_MOTION = 14.32906767 ECCENTRICITY = .00026865 INCLINATION = 98.5565 RA_OF_ASC_NODE = 80.736 ARG_OF_PERICENTER = 53.3725 MEAN_ANOMALY = 306.7706 EPHEMERIS_TYPE = 0 CLASSIFICATION_TYPE = U NORAD_CAT_ID = 39086 ELEMENT_SET_NO = 999 REV_AT_EPOCH = 70807 BSTAR = .28191E-4 MEAN_MOTION_DOT = .33000E-6 MEAN_MOTION_DDOT = 0 CCSDS_OMM_VERS = 2.0 CREATION_DATE = ORIGINATOR = OBJECT_NAME = METOP-C OBJECT_ID = 2018-087A CENTER_NAME = EARTH REF_FRAME = TEME TIME_SYSTEM = UTC MEAN_ELEMENT_THEORY = SGP/SGP4 EPOCH = 2026-09-12T04:59:07.301760 MEAN_MOTION = 14.21509908 ECCENTRICITY = .00005468 INCLINATION = 98.6958 RA_OF_ASC_NODE = 313.2167 ARG_OF_PERICENTER = 53.1367 MEAN_ANOMALY = 306.9861 EPHEMERIS_TYPE = 0 CLASSIFICATION_TYPE = U NORAD_CAT_ID = 43689 ELEMENT_SET_NO = 999 REV_AT_EPOCH = 40719 BSTAR = .48077E-4 MEAN_MOTION_DOT = .62000E-6 MEAN_MOTION_DDOT = 0 CCSDS_OMM_VERS = 2.0 CREATION_DATE = ORIGINATOR = OBJECT_NAME = OTB-3-GAZELLE OBJECT_ID = 2022-127A CENTER_NAME = EARTH REF_FRAME = TEME TIME_SYSTEM = UTC MEAN_ELEMENT_THEORY = SGP/SGP4 EPOCH = 2026-09-12T05:44:43.290816 MEAN_MOTION = 14.42700544 ECCENTRICITY = .00119416 INCLINATION = 98.4031 RA_OF_ASC_NODE = 245.6534 ARG_OF_PERICENTER = 288.3738 MEAN_ANOMALY = 71.6153 EPHEMERIS_TYPE = 0 CLASSIFICATION_TYPE = U NORAD_CAT_ID = 54023 ELEMENT_SET_NO = 999 REV_AT_EPOCH = 20691 BSTAR = .34279E-4 MEAN_MOTION_DOT = .71000E-6 MEAN_MOTION_DDOT = 0 CCSDS_OMM_VERS = 2.0 CREATION_DATE = ORIGINATOR = OBJECT_NAME = EOS-6 (OCEANSAT-3) OBJECT_ID = 2022-158A CENTER_NAME = EARTH REF_FRAME = TEME TIME_SYSTEM = UTC MEAN_ELEMENT_THEORY = SGP/SGP4 EPOCH = 2026-09-12T06:58:25.057056 MEAN_MOTION = 14.46977376 ECCENTRICITY = .00023351 INCLINATION = 98.3552 RA_OF_ASC_NODE = 352.3312 ARG_OF_PERICENTER = 92.9973 MEAN_ANOMALY = 267.1487 EPHEMERIS_TYPE = 0 CLASSIFICATION_TYPE = U NORAD_CAT_ID = 54361 ELEMENT_SET_NO = 999 REV_AT_EPOCH = 20043 BSTAR = .61505E-4 MEAN_MOTION_DOT = .18000E-5 MEAN_MOTION_DDOT = 0 CCSDS_OMM_VERS = 2.0 CREATION_DATE = ORIGINATOR = OBJECT_NAME = KINEIS-1B OBJECT_ID = 2024-114A CENTER_NAME = EARTH REF_FRAME = TEME TIME_SYSTEM = UTC MEAN_ELEMENT_THEORY = SGP/SGP4 EPOCH = 2026-09-12T07:03:45.292608 MEAN_MOTION = 14.80742598 ECCENTRICITY = .00030403 INCLINATION = 97.9811 RA_OF_ASC_NODE = 279.0619 ARG_OF_PERICENTER = 145.3543 MEAN_ANOMALY = 214.7868 EPHEMERIS_TYPE = 0 CLASSIFICATION_TYPE = U NORAD_CAT_ID = 60079 ELEMENT_SET_NO = 999 REV_AT_EPOCH = 12029 BSTAR = .73105E-4 MEAN_MOTION_DOT = .51000E-5 MEAN_MOTION_DDOT = 0 CCSDS_OMM_VERS = 2.0 CREATION_DATE = ORIGINATOR = OBJECT_NAME = KINEIS-1C OBJECT_ID = 2024-114C CENTER_NAME = EARTH REF_FRAME = TEME TIME_SYSTEM = UTC MEAN_ELEMENT_THEORY = SGP/SGP4 EPOCH = 2026-09-12T06:14:56.215968 MEAN_MOTION = 14.80740571 ECCENTRICITY = .0000505 INCLINATION = 97.9829 RA_OF_ASC_NODE = 278.8965 ARG_OF_PERICENTER = 108.3486 MEAN_ANOMALY = 251.7781 EPHEMERIS_TYPE = 0 CLASSIFICATION_TYPE = U NORAD_CAT_ID = 60081 ELEMENT_SET_NO = 999 REV_AT_EPOCH = 12026 BSTAR = .71637E-4 MEAN_MOTION_DOT = .49900E-5 MEAN_MOTION_DDOT = 0 CCSDS_OMM_VERS = 2.0 CREATION_DATE = ORIGINATOR = OBJECT_NAME = KINEIS-1D OBJECT_ID = 2024-114D CENTER_NAME = EARTH REF_FRAME = TEME TIME_SYSTEM = UTC MEAN_ELEMENT_THEORY = SGP/SGP4 EPOCH = 2026-09-12T08:05:55.533984 MEAN_MOTION = 14.76419649 ECCENTRICITY = .00001113 INCLINATION = 97.9875 RA_OF_ASC_NODE = 274.528 ARG_OF_PERICENTER = 53.2853 MEAN_ANOMALY = 306.8366 EPHEMERIS_TYPE = 0 CLASSIFICATION_TYPE = U NORAD_CAT_ID = 60082 ELEMENT_SET_NO = 999 REV_AT_EPOCH = 11998 BSTAR = .63469E-4 MEAN_MOTION_DOT = .39000E-5 MEAN_MOTION_DDOT = 0 CCSDS_OMM_VERS = 2.0 CREATION_DATE = ORIGINATOR = OBJECT_NAME = KINEIS-1E OBJECT_ID = 2024-114E CENTER_NAME = EARTH REF_FRAME = TEME TIME_SYSTEM = UTC MEAN_ELEMENT_THEORY = SGP/SGP4 EPOCH = 2026-09-12T08:16:20.477280 MEAN_MOTION = 14.80768106 ECCENTRICITY = .00012077 INCLINATION = 97.8937 RA_OF_ASC_NODE = 277.3959 ARG_OF_PERICENTER = 306.3008 MEAN_ANOMALY = 53.8092 EPHEMERIS_TYPE = 0 CLASSIFICATION_TYPE = U NORAD_CAT_ID = 60083 ELEMENT_SET_NO = 999 REV_AT_EPOCH = 12028 BSTAR = .66636E-4 MEAN_MOTION_DOT = .46200E-5 MEAN_MOTION_DDOT = 0 CCSDS_OMM_VERS = 2.0 CREATION_DATE = ORIGINATOR = OBJECT_NAME = KINEIS-1A OBJECT_ID = 2024-114F CENTER_NAME = EARTH REF_FRAME = TEME TIME_SYSTEM = UTC MEAN_ELEMENT_THEORY = SGP/SGP4 EPOCH = 2026-09-12T07:28:23.294208 MEAN_MOTION = 14.80730364 ECCENTRICITY = .00034205 INCLINATION = 97.8909 RA_OF_ASC_NODE = 277.4358 ARG_OF_PERICENTER = 197.7825 MEAN_ANOMALY = 162.3268 EPHEMERIS_TYPE = 0 CLASSIFICATION_TYPE = U NORAD_CAT_ID = 60084 ELEMENT_SET_NO = 999 REV_AT_EPOCH = 12028 BSTAR = .67390E-4 MEAN_MOTION_DOT = .46700E-5 MEAN_MOTION_DDOT = 0 CCSDS_OMM_VERS = 2.0 CREATION_DATE = ORIGINATOR = OBJECT_NAME = KINEIS-3C OBJECT_ID = 2024-172A CENTER_NAME = EARTH REF_FRAME = TEME TIME_SYSTEM = UTC MEAN_ELEMENT_THEORY = SGP/SGP4 EPOCH = 2026-09-12T04:46:42.171744 MEAN_MOTION = 14.72313063 ECCENTRICITY = .00010615 INCLINATION = 98.0412 RA_OF_ASC_NODE = 344.1657 ARG_OF_PERICENTER = 167.7345 MEAN_ANOMALY = 192.3888 EPHEMERIS_TYPE = 0 CLASSIFICATION_TYPE = U NORAD_CAT_ID = 61220 ELEMENT_SET_NO = 999 REV_AT_EPOCH = 10587 BSTAR = .19785E-3 MEAN_MOTION_DOT = .12010E-4 MEAN_MOTION_DDOT = 0 CCSDS_OMM_VERS = 2.0 CREATION_DATE = ORIGINATOR = OBJECT_NAME = KINEIS-3D OBJECT_ID = 2024-172B CENTER_NAME = EARTH REF_FRAME = TEME TIME_SYSTEM = UTC MEAN_ELEMENT_THEORY = SGP/SGP4 EPOCH = 2026-09-12T04:37:09.484032 MEAN_MOTION = 14.72302542 ECCENTRICITY = .00010692 INCLINATION = 98.0411 RA_OF_ASC_NODE = 344.1687 ARG_OF_PERICENTER = 158.3764 MEAN_ANOMALY = 201.7489 EPHEMERIS_TYPE = 0 CLASSIFICATION_TYPE = U NORAD_CAT_ID = 61221 ELEMENT_SET_NO = 999 REV_AT_EPOCH = 10615 BSTAR = .19676E-3 MEAN_MOTION_DOT = .11940E-4 MEAN_MOTION_DDOT = 0 CCSDS_OMM_VERS = 2.0 CREATION_DATE = ORIGINATOR = OBJECT_NAME = KINEIS-3E OBJECT_ID = 2024-172C CENTER_NAME = EARTH REF_FRAME = TEME TIME_SYSTEM = UTC MEAN_ELEMENT_THEORY = SGP/SGP4 EPOCH = 2026-09-12T05:49:51.686112 MEAN_MOTION = 14.7236728 ECCENTRICITY = .00011892 INCLINATION = 98.0406 RA_OF_ASC_NODE = 344.1966 ARG_OF_PERICENTER = 120.7558 MEAN_ANOMALY = 239.3766 EPHEMERIS_TYPE = 0 CLASSIFICATION_TYPE = U NORAD_CAT_ID = 61222 ELEMENT_SET_NO = 999 REV_AT_EPOCH = 10616 BSTAR = .19463E-3 MEAN_MOTION_DOT = .11820E-4 MEAN_MOTION_DDOT = 0 CCSDS_OMM_VERS = 2.0 CREATION_DATE = ORIGINATOR = OBJECT_NAME = KINEIS-3A OBJECT_ID = 2024-172D CENTER_NAME = EARTH REF_FRAME = TEME TIME_SYSTEM = UTC MEAN_ELEMENT_THEORY = SGP/SGP4 EPOCH = 2026-09-12T05:26:26.191392 MEAN_MOTION = 14.72320037 ECCENTRICITY = .00026385 INCLINATION = 98.0404 RA_OF_ASC_NODE = 344.2761 ARG_OF_PERICENTER = 143.8082 MEAN_ANOMALY = 216.3304 EPHEMERIS_TYPE = 0 CLASSIFICATION_TYPE = U NORAD_CAT_ID = 61223 ELEMENT_SET_NO = 999 REV_AT_EPOCH = 10558 BSTAR = .19431E-3 MEAN_MOTION_DOT = .11790E-4 MEAN_MOTION_DDOT = 0 CCSDS_OMM_VERS = 2.0 CREATION_DATE = ORIGINATOR = OBJECT_NAME = KINEIS-3B OBJECT_ID = 2024-172E CENTER_NAME = EARTH REF_FRAME = TEME TIME_SYSTEM = UTC MEAN_ELEMENT_THEORY = SGP/SGP4 EPOCH = 2026-09-12T05:01:46.128288 MEAN_MOTION = 14.72318238 ECCENTRICITY = .00029026 INCLINATION = 98.0398 RA_OF_ASC_NODE = 344.2768 ARG_OF_PERICENTER = 129.7536 MEAN_ANOMALY = 230.3927 EPHEMERIS_TYPE = 0 CLASSIFICATION_TYPE = U NORAD_CAT_ID = 61224 ELEMENT_SET_NO = 999 REV_AT_EPOCH = 10615 BSTAR = .19579E-3 MEAN_MOTION_DOT = .11880E-4 MEAN_MOTION_DDOT = 0 CCSDS_OMM_VERS = 2.0 CREATION_DATE = ORIGINATOR = OBJECT_NAME = KINEIS-5C OBJECT_ID = 2024-219A CENTER_NAME = EARTH REF_FRAME = TEME TIME_SYSTEM = UTC MEAN_ELEMENT_THEORY = SGP/SGP4 EPOCH = 2026-09-12T06:06:08.438112 MEAN_MOTION = 14.72312792 ECCENTRICITY = .00043302 INCLINATION = 97.9144 RA_OF_ASC_NODE = 51.7418 ARG_OF_PERICENTER = 22.7805 MEAN_ANOMALY = 337.3594 EPHEMERIS_TYPE = 0 CLASSIFICATION_TYPE = U NORAD_CAT_ID = 62081 ELEMENT_SET_NO = 999 REV_AT_EPOCH = 9656 BSTAR = .73434E-4 MEAN_MOTION_DOT = .41600E-5 MEAN_MOTION_DDOT = 0 CCSDS_OMM_VERS = 2.0 CREATION_DATE = ORIGINATOR = OBJECT_NAME = KINEIS-5D OBJECT_ID = 2024-219B CENTER_NAME = EARTH REF_FRAME = TEME TIME_SYSTEM = UTC MEAN_ELEMENT_THEORY = SGP/SGP4 EPOCH = 2026-09-12T06:31:48.258048 MEAN_MOTION = 14.72578799 ECCENTRICITY = .00049198 INCLINATION = 97.926 RA_OF_ASC_NODE = 51.9284 ARG_OF_PERICENTER = 10.3583 MEAN_ANOMALY = 349.7726 EPHEMERIS_TYPE = 0 CLASSIFICATION_TYPE = U NORAD_CAT_ID = 62082 ELEMENT_SET_NO = 999 REV_AT_EPOCH = 9657 BSTAR = .10213E-3 MEAN_MOTION_DOT = .60100E-5 MEAN_MOTION_DDOT = 0 CCSDS_OMM_VERS = 2.0 CREATION_DATE = ORIGINATOR = OBJECT_NAME = KINEIS-5E OBJECT_ID = 2024-219C CENTER_NAME = EARTH REF_FRAME = TEME TIME_SYSTEM = UTC MEAN_ELEMENT_THEORY = SGP/SGP4 EPOCH = 2026-09-12T07:11:10.040064 MEAN_MOTION = 14.72285729 ECCENTRICITY = .00061497 INCLINATION = 97.9103 RA_OF_ASC_NODE = 51.847 ARG_OF_PERICENTER = 0.2813 MEAN_ANOMALY = 359.8398 EPHEMERIS_TYPE = 0 CLASSIFICATION_TYPE = U NORAD_CAT_ID = 62083 ELEMENT_SET_NO = 999 REV_AT_EPOCH = 9658 BSTAR = .67396E-4 MEAN_MOTION_DOT = .37700E-5 MEAN_MOTION_DDOT = 0 CCSDS_OMM_VERS = 2.0 CREATION_DATE = ORIGINATOR = OBJECT_NAME = KINEIS-5A OBJECT_ID = 2024-219D CENTER_NAME = EARTH REF_FRAME = TEME TIME_SYSTEM = UTC MEAN_ELEMENT_THEORY = SGP/SGP4 EPOCH = 2026-09-12T06:37:07.550112 MEAN_MOTION = 14.72288685 ECCENTRICITY = .00051539 INCLINATION = 97.9041 RA_OF_ASC_NODE = 52.0659 ARG_OF_PERICENTER = 42.591 MEAN_ANOMALY = 317.5697 EPHEMERIS_TYPE = 0 CLASSIFICATION_TYPE = U NORAD_CAT_ID = 62084 ELEMENT_SET_NO = 999 REV_AT_EPOCH = 9658 BSTAR = -.28686E-3 MEAN_MOTION_DOT = -.18600E-4 MEAN_MOTION_DDOT = 0 CCSDS_OMM_VERS = 2.0 CREATION_DATE = ORIGINATOR = OBJECT_NAME = KINEIS-5B OBJECT_ID = 2024-219E CENTER_NAME = EARTH REF_FRAME = TEME TIME_SYSTEM = UTC MEAN_ELEMENT_THEORY = SGP/SGP4 EPOCH = 2026-09-12T06:55:42.636288 MEAN_MOTION = 14.78483656 ECCENTRICITY = .00020411 INCLINATION = 98.0162 RA_OF_ASC_NODE = 58.6763 ARG_OF_PERICENTER = 30.7324 MEAN_ANOMALY = 329.4006 EPHEMERIS_TYPE = 0 CLASSIFICATION_TYPE = U NORAD_CAT_ID = 62085 ELEMENT_SET_NO = 999 REV_AT_EPOCH = 9687 BSTAR = .10459E-3 MEAN_MOTION_DOT = .71100E-5 MEAN_MOTION_DDOT = 0 CCSDS_OMM_VERS = 2.0 CREATION_DATE = ORIGINATOR = OBJECT_NAME = KINEIS-2C OBJECT_ID = 2025-028B CENTER_NAME = EARTH REF_FRAME = TEME TIME_SYSTEM = UTC MEAN_ELEMENT_THEORY = SGP/SGP4 EPOCH = 2026-09-12T02:34:36.318720 MEAN_MOTION = 14.73559344 ECCENTRICITY = .00036281 INCLINATION = 98.1164 RA_OF_ASC_NODE = 309.5718 ARG_OF_PERICENTER = 13.8839 MEAN_ANOMALY = 346.2468 EPHEMERIS_TYPE = 0 CLASSIFICATION_TYPE = U NORAD_CAT_ID = 62929 ELEMENT_SET_NO = 999 REV_AT_EPOCH = 8541 BSTAR = .15454E-3 MEAN_MOTION_DOT = .95400E-5 MEAN_MOTION_DDOT = 0 CCSDS_OMM_VERS = 2.0 CREATION_DATE = ORIGINATOR = OBJECT_NAME = KINEIS-2D OBJECT_ID = 2025-028C CENTER_NAME = EARTH REF_FRAME = TEME TIME_SYSTEM = UTC MEAN_ELEMENT_THEORY = SGP/SGP4 EPOCH = 2026-09-12T02:36:09.902016 MEAN_MOTION = 14.7590312 ECCENTRICITY = .00017509 INCLINATION = 97.9207 RA_OF_ASC_NODE = 305.8574 ARG_OF_PERICENTER = 293.5768 MEAN_ANOMALY = 66.5258 EPHEMERIS_TYPE = 0 CLASSIFICATION_TYPE = U NORAD_CAT_ID = 62930 ELEMENT_SET_NO = 999 REV_AT_EPOCH = 8553 BSTAR = .14779E-3 MEAN_MOTION_DOT = .96500E-5 MEAN_MOTION_DDOT = 0 CCSDS_OMM_VERS = 2.0 CREATION_DATE = ORIGINATOR = OBJECT_NAME = KINEIS-2E OBJECT_ID = 2025-028D CENTER_NAME = EARTH REF_FRAME = TEME TIME_SYSTEM = UTC MEAN_ELEMENT_THEORY = SGP/SGP4 EPOCH = 2026-09-12T03:15:59.712192 MEAN_MOTION = 14.77205355 ECCENTRICITY = .00009993 INCLINATION = 97.8876 RA_OF_ASC_NODE = 304.8938 ARG_OF_PERICENTER = 109.0727 MEAN_ANOMALY = 251.0591 EPHEMERIS_TYPE = 0 CLASSIFICATION_TYPE = U NORAD_CAT_ID = 62931 ELEMENT_SET_NO = 999 REV_AT_EPOCH = 8561 BSTAR = .12411E-3 MEAN_MOTION_DOT = .82900E-5 MEAN_MOTION_DDOT = 0 CCSDS_OMM_VERS = 2.0 CREATION_DATE = ORIGINATOR = OBJECT_NAME = KINEIS-2A OBJECT_ID = 2025-028E CENTER_NAME = EARTH REF_FRAME = TEME TIME_SYSTEM = UTC MEAN_ELEMENT_THEORY = SGP/SGP4 EPOCH = 2026-09-12T03:39:18.162720 MEAN_MOTION = 14.73562525 ECCENTRICITY = .00033607 INCLINATION = 98.1222 RA_OF_ASC_NODE = 310.6659 ARG_OF_PERICENTER = 239.3814 MEAN_ANOMALY = 120.7063 EPHEMERIS_TYPE = 0 CLASSIFICATION_TYPE = U NORAD_CAT_ID = 62932 ELEMENT_SET_NO = 999 REV_AT_EPOCH = 8541 BSTAR = .13409E-3 MEAN_MOTION_DOT = .82100E-5 MEAN_MOTION_DDOT = 0 CCSDS_OMM_VERS = 2.0 CREATION_DATE = ORIGINATOR = OBJECT_NAME = KINEIS-2B OBJECT_ID = 2025-028G CENTER_NAME = EARTH REF_FRAME = TEME TIME_SYSTEM = UTC MEAN_ELEMENT_THEORY = SGP/SGP4 EPOCH = 2026-09-12T03:06:53.488800 MEAN_MOTION = 14.73565068 ECCENTRICITY = .00026184 INCLINATION = 97.9589 RA_OF_ASC_NODE = 306.3886 ARG_OF_PERICENTER = 211.7612 MEAN_ANOMALY = 148.3439 EPHEMERIS_TYPE = 0 CLASSIFICATION_TYPE = U NORAD_CAT_ID = 62934 ELEMENT_SET_NO = 999 REV_AT_EPOCH = 8546 BSTAR = .13774E-3 MEAN_MOTION_DOT = .84700E-5 MEAN_MOTION_DDOT = 0 CCSDS_OMM_VERS = 2.0 CREATION_DATE = ORIGINATOR = OBJECT_NAME = KINEIS-4E OBJECT_ID = 2025-056A CENTER_NAME = EARTH REF_FRAME = TEME TIME_SYSTEM = UTC MEAN_ELEMENT_THEORY = SGP/SGP4 EPOCH = 2026-09-12T07:22:43.818240 MEAN_MOTION = 14.72301988 ECCENTRICITY = .0000926 INCLINATION = 97.9134 RA_OF_ASC_NODE = 16.8337 ARG_OF_PERICENTER = 183.9228 MEAN_ANOMALY = 176.1973 EPHEMERIS_TYPE = 0 CLASSIFICATION_TYPE = U NORAD_CAT_ID = 63300 ELEMENT_SET_NO = 999 REV_AT_EPOCH = 7994 BSTAR = .17215E-3 MEAN_MOTION_DOT = .10400E-4 MEAN_MOTION_DDOT = 0 CCSDS_OMM_VERS = 2.0 CREATION_DATE = ORIGINATOR = OBJECT_NAME = KINEIS-4C OBJECT_ID = 2025-056B CENTER_NAME = EARTH REF_FRAME = TEME TIME_SYSTEM = UTC MEAN_ELEMENT_THEORY = SGP/SGP4 EPOCH = 2026-09-12T07:41:07.720800 MEAN_MOTION = 14.72326686 ECCENTRICITY = .00045363 INCLINATION = 97.9188 RA_OF_ASC_NODE = 17.133 ARG_OF_PERICENTER = 58.8175 MEAN_ANOMALY = 301.3477 EPHEMERIS_TYPE = 0 CLASSIFICATION_TYPE = U NORAD_CAT_ID = 63301 ELEMENT_SET_NO = 999 REV_AT_EPOCH = 7995 BSTAR = .17606E-3 MEAN_MOTION_DOT = .10650E-4 MEAN_MOTION_DDOT = 0 CCSDS_OMM_VERS = 2.0 CREATION_DATE = ORIGINATOR = OBJECT_NAME = KINEIS-4D OBJECT_ID = 2025-056C CENTER_NAME = EARTH REF_FRAME = TEME TIME_SYSTEM = UTC MEAN_ELEMENT_THEORY = SGP/SGP4 EPOCH = 2026-09-12T07:47:40.341408 MEAN_MOTION = 14.72346691 ECCENTRICITY = .00036531 INCLINATION = 97.9109 RA_OF_ASC_NODE = 17.0502 ARG_OF_PERICENTER = 72.5168 MEAN_ANOMALY = 287.6439 EPHEMERIS_TYPE = 0 CLASSIFICATION_TYPE = U NORAD_CAT_ID = 63302 ELEMENT_SET_NO = 999 REV_AT_EPOCH = 7995 BSTAR = .17483E-3 MEAN_MOTION_DOT = .10580E-4 MEAN_MOTION_DDOT = 0 CCSDS_OMM_VERS = 2.0 CREATION_DATE = ORIGINATOR = OBJECT_NAME = KINEIS-4A OBJECT_ID = 2025-056D CENTER_NAME = EARTH REF_FRAME = TEME TIME_SYSTEM = UTC MEAN_ELEMENT_THEORY = SGP/SGP4 EPOCH = 2026-09-12T06:58:37.123680 MEAN_MOTION = 14.72279387 ECCENTRICITY = .00021458 INCLINATION = 97.9204 RA_OF_ASC_NODE = 17.0398 ARG_OF_PERICENTER = 47.3693 MEAN_ANOMALY = 312.7695 EPHEMERIS_TYPE = 0 CLASSIFICATION_TYPE = U NORAD_CAT_ID = 63303 ELEMENT_SET_NO = 999 REV_AT_EPOCH = 7994 BSTAR = .16761E-3 MEAN_MOTION_DOT = .10100E-4 MEAN_MOTION_DDOT = 0 CCSDS_OMM_VERS = 2.0 CREATION_DATE = ORIGINATOR = OBJECT_NAME = KINEIS-4B OBJECT_ID = 2025-056E CENTER_NAME = EARTH REF_FRAME = TEME TIME_SYSTEM = UTC MEAN_ELEMENT_THEORY = SGP/SGP4 EPOCH = 2026-09-12T08:11:34.240128 MEAN_MOTION = 14.72349103 ECCENTRICITY = .00059503 INCLINATION = 97.9216 RA_OF_ASC_NODE = 17.155 ARG_OF_PERICENTER = 31.8693 MEAN_ANOMALY = 328.2874 EPHEMERIS_TYPE = 0 CLASSIFICATION_TYPE = U NORAD_CAT_ID = 63304 ELEMENT_SET_NO = 999 REV_AT_EPOCH = 7994 BSTAR = .16778E-3 MEAN_MOTION_DOT = .10130E-4 MEAN_MOTION_DDOT = 0